Weather History for KFET - September, 2014

Change the Weather History Date:

Thursday, September 4, 2014

  Actual Average Record
Temperature  
Mean Temperature 79 °F -  
Max Temperature 88 °F 82 °F 102 °F (1954)
Min Temperature 68 °F 59 °F 40 °F (1974)
Cooling Degree Days 14    
Growing Degree Days 29 (Base 50)    
Moisture  
Dew Point 67 °F    
Average Humidity 67    
Maximum Humidity 81    
Minimum Humidity 52    
Precipitation  
Precipitation 0.00 in - - ()
Sea Level Pressure  
Sea Level Pressure 29.79 in    
Wind  
Wind Speed 10 mph (SW)    
Max Wind Speed 17 mph    
Max Gust Speed 22 mph    
Visibility 10 miles    
Events Thunderstorm    
Averages and records for this station are not official NWS values.
T = Trace of Precipitation, MM = Missing Value Source: NWS Daily Summary

Daily Weather History Graph

Daily Weather History Graph

Search for Another Location

Airport or City:

Trip Planner

Search our weather history database for the weather conditions in past years. The results will help you decide how hot, cold, wet, or windy it might be!

Date:

Astronomy

Sep. 04, 2014 Rise Set
Actual Time 6:55 AM CDT 7:54 PM CDT
Civil Twilight 6:27 AM CDT 8:22 PM CDT
Nautical Twilight 5:53 AM CDT 8:55 PM CDT
Astronomical Twilight 5:18 AM CDT 9:30 PM CDT
Moon 4:34 PM CDT (9/4) 1:45 AM CDT (9/4)
Length of Visible Light 13h 55m
Length of Day
12h 58m
Waxing Gibbous, 74% of the Moon is Illuminated
Sep 4
Waxing Gibbous
Sep 8
Full
Sep 15
Last Quarter
Sep 24
New
Oct 1
First Quarter

Hourly Weather History & Observations

Time (CDT) Temp. Heat Index Dew Point Humidity Pressure Visibility Wind Dir Wind Speed Gust Speed Precip Events Conditions
12:15 AM 79.7 °F - 72.1 °F 78% 29.70 in 10.0 mi SSE 12.7 mph 17.3 mph N/A   Clear
12:35 AM 79.3 °F - 71.6 °F 77% 29.70 in 10.0 mi South 12.7 mph 16.1 mph N/A   Clear
12:55 AM 79.0 °F - 71.2 °F 77% 29.70 in 10.0 mi South 13.8 mph 18.4 mph N/A   Clear
1:15 AM 79.2 °F - 70.7 °F 75% 29.70 in 10.0 mi South 13.8 mph 19.6 mph N/A   Clear
1:35 AM 79.3 °F - 70.0 °F 73% 29.69 in 10.0 mi South 12.7 mph 18.4 mph N/A   Clear
1:55 AM 79.5 °F - 69.6 °F 72% 29.69 in 10.0 mi South 15.0 mph - N/A   Clear
2:15 AM 79.5 °F - 69.3 °F 71% 29.69 in 10.0 mi South 12.7 mph - N/A   Clear
2:35 AM 79.3 °F - 69.1 °F 71% 29.69 in 10.0 mi SSE 13.8 mph 19.6 mph N/A   Clear
2:55 AM 79.3 °F - 68.9 °F 70% 29.69 in 10.0 mi South 12.7 mph 18.4 mph N/A   Clear
3:15 AM 79.0 °F - 68.5 °F 70% 29.69 in 10.0 mi South 9.2 mph 16.1 mph N/A   Clear
3:35 AM 78.3 °F - 68.4 °F 71% 29.70 in 10.0 mi South 9.2 mph - N/A   Clear
3:55 AM 78.4 °F - 68.0 °F 70% 29.70 in 10.0 mi South 10.4 mph 17.3 mph N/A   Clear
4:15 AM 78.3 °F - 67.6 °F 70% 29.69 in 10.0 mi South 11.5 mph - N/A   Clear
4:35 AM 78.3 °F - 67.3 °F 69% 29.70 in 10.0 mi SSE 8.1 mph - N/A   Clear
4:55 AM 77.4 °F - 67.3 °F 71% 29.69 in 10.0 mi SSE 6.9 mph - N/A   Clear
5:15 AM 77.0 °F - 67.1 °F 71% 29.70 in 10.0 mi SSE 6.9 mph - N/A   Clear
5:35 AM 76.8 °F - 67.1 °F 72% 29.69 in 10.0 mi SSE 6.9 mph - N/A   Clear
5:55 AM 76.6 °F - 67.1 °F 72% 29.69 in 10.0 mi South 6.9 mph - N/A   Clear
6:15 AM 76.5 °F - 67.1 °F 73% 29.69 in 10.0 mi SSE 4.6 mph - N/A   Clear
6:35 AM 75.9 °F - 66.7 °F 73% 29.70 in 10.0 mi SSE 4.6 mph - N/A   Clear
6:55 AM 76.3 °F - 66.6 °F 72% 29.70 in 10.0 mi South 4.6 mph - N/A   Clear
7:15 AM 76.3 °F - 66.6 °F 72% 29.70 in 10.0 mi Calm Calm - N/A   Clear
7:35 AM 77.0 °F - 66.6 °F 70% 29.71 in 10.0 mi South 9.2 mph - N/A   Clear
7:55 AM 77.4 °F - 66.9 °F 70% 29.70 in 10.0 mi South 9.2 mph - N/A   Clear
8:15 AM 78.1 °F - 66.9 °F 68% 29.71 in 10.0 mi South 6.9 mph 16.1 mph N/A   Clear
8:35 AM 78.3 °F - 67.5 °F 69% 29.73 in 10.0 mi SSW 4.6 mph - N/A   Clear
8:55 AM 77.9 °F - 67.6 °F 71% 29.74 in 10.0 mi Calm Calm - N/A   Clear
9:15 AM 79.5 °F - 68.0 °F 68% 29.74 in 10.0 mi SSW 5.8 mph - N/A   Clear
9:35 AM 81.3 °F 84.3 °F 68.4 °F 65% 29.74 in 10.0 mi SSW 8.1 mph - N/A   Clear
9:55 AM 82.8 °F 85.8 °F 68.2 °F 61% 29.75 in 10.0 mi SSW 12.7 mph 18.4 mph N/A   Clear
10:15 AM 83.5 °F 86.4 °F 67.6 °F 59% 29.75 in 10.0 mi SSW 9.2 mph 18.4 mph N/A   Clear
10:35 AM 84.2 °F 87.3 °F 68.0 °F 58% 29.75 in 10.0 mi SSW 11.5 mph 20.7 mph N/A   Clear
10:55 AM 85.1 °F 88.5 °F 68.4 °F 57% 29.76 in 10.0 mi SSW 10.4 mph 19.6 mph N/A   Clear
11:15 AM 85.5 °F 88.8 °F 68.0 °F 56% 29.76 in 10.0 mi SSW 16.1 mph 19.6 mph N/A   Clear
11:35 AM 86.4 °F 90.0 °F 68.5 °F 55% 29.76 in 10.0 mi SSW 15.0 mph 19.6 mph N/A   Clear
11:55 AM 87.1 °F 90.9 °F 68.7 °F 54% 29.77 in 10.0 mi SW 17.3 mph 20.7 mph N/A   Clear
12:15 PM 87.6 °F 91.1 °F 68.0 °F 52% 29.77 in 10.0 mi SW 13.8 mph 21.9 mph N/A   Clear
12:35 PM 87.8 °F 91.8 °F 68.9 °F 53% 29.78 in 10.0 mi WSW 12.7 mph 17.3 mph N/A   Clear
12:55 PM 87.4 °F 91.5 °F 68.7 °F 54% 29.78 in 10.0 mi SW 12.7 mph 18.4 mph N/A   Clear
1:15 PM 88.0 °F 92.5 °F 69.3 °F 54% 29.79 in 10.0 mi WSW 9.2 mph - N/A   Scattered Clouds
1:35 PM 86.9 °F 91.3 °F 69.3 °F 56% 29.79 in 10.0 mi SW 9.2 mph - N/A   Scattered Clouds
1:55 PM 87.1 °F 91.6 °F 69.6 °F 56% 29.79 in 10.0 mi WSW 10.4 mph - N/A   Scattered Clouds
2:15 PM 86.5 °F 91.4 °F 70.2 °F 58% 29.80 in 10.0 mi West 8.1 mph - N/A   Mostly Cloudy
2:35 PM 84.6 °F 89.4 °F 70.7 °F 63% 29.81 in 10.0 mi NW 12.7 mph - N/A   Mostly Cloudy
2:55 PM 83.3 °F 87.4 °F 70.0 °F 64% 29.81 in 10.0 mi NW 12.7 mph - N/A   Scattered Clouds
3:15 PM 82.9 °F 87.0 °F 70.0 °F 65% 29.82 in 10.0 mi NNW 9.2 mph 17.3 mph N/A   Scattered Clouds
3:35 PM 82.4 °F 86.1 °F 69.6 °F 65% 29.82 in 10.0 mi NNW 9.2 mph - N/A   Scattered Clouds
3:55 PM 83.7 °F 88.0 °F 70.5 °F 64% 29.82 in 10.0 mi NNW 11.5 mph 17.3 mph N/A   Clear
4:15 PM 83.8 °F 88.3 °F 70.3 °F 64% 29.82 in 10.0 mi NW 9.2 mph - N/A   Mostly Cloudy
4:35 PM 83.1 °F 87.3 °F 70.3 °F 65% 29.83 in 10.0 mi NW 11.5 mph - N/A   Mostly Cloudy
4:55 PM 82.4 °F 86.5 °F 70.3 °F 67% 29.83 in 10.0 mi NNW 11.5 mph - N/A   Mostly Cloudy
5:15 PM 81.5 °F 84.9 °F 69.6 °F 67% 29.84 in 10.0 mi NW 13.8 mph - N/A   Mostly Cloudy
5:35 PM 81.7 °F 84.9 °F 69.1 °F 65% 29.84 in 10.0 mi NW 13.8 mph - N/A   Mostly Cloudy
5:55 PM 80.6 °F 83.5 °F 68.9 °F 67% 29.85 in 10.0 mi NNW 15.0 mph 18.4 mph N/A   Scattered Clouds
6:15 PM 78.6 °F - 68.4 °F 71% 29.86 in 10.0 mi NNW 10.4 mph 17.3 mph N/A   Scattered Clouds
6:35 PM 77.2 °F - 67.6 °F 72% 29.87 in 10.0 mi NNW 9.2 mph 17.3 mph N/A   Mostly Cloudy
6:55 PM 76.8 °F - 67.1 °F 72% 29.88 in 10.0 mi NNW 9.2 mph - N/A   Overcast
7:15 PM 76.6 °F - 66.7 °F 71% 29.88 in 10.0 mi North 6.9 mph - N/A   Overcast
7:35 PM 76.1 °F - 66.7 °F 73% 29.89 in 10.0 mi North 6.9 mph - N/A   Mostly Cloudy
7:55 PM 75.0 °F - 67.1 °F 76% 29.89 in 10.0 mi North 3.5 mph - N/A   Mostly Cloudy
8:15 PM 74.7 °F - 67.5 °F 78% 29.90 in 10.0 mi NNW 3.5 mph - N/A   Mostly Cloudy
8:30 PM 74.5 °F - 67.5 °F 79% 29.91 in 10.0 mi Calm Calm - N/A   Mostly Cloudy
8:55 PM 74.5 °F - 67.1 °F 78% 29.93 in 10.0 mi Calm Calm - N/A   Mostly Cloudy
9:15 PM 73.8 °F - 67.5 °F 81% 29.94 in 10.0 mi NNW 3.5 mph - N/A   Mostly Cloudy
9:35 PM 74.1 °F - 66.7 °F 78% 29.95 in 10.0 mi NNW 4.6 mph - N/A   Overcast
10:15 PM 73.4 °F - 62.4 °F 68% 29.96 in 10.0 mi NNW 9.2 mph - N/A Thunderstorm Thunderstorm
10:35 PM 73.2 °F - 56.3 °F 55% 29.98 in 10.0 mi NNW 6.9 mph - N/A Thunderstorm Mostly Cloudy
10:55 PM 72.3 °F - 55.8 °F 56% 29.99 in 10.0 mi NNW 8.1 mph - N/A Thunderstorm Overcast
11:15 PM 71.6 °F - 54.0 °F 54% 29.99 in 10.0 mi North 8.1 mph 16.1 mph N/A   Overcast
11:35 PM 70.2 °F - 52.7 °F 54% 30.02 in 10.0 mi NNW 10.4 mph 20.7 mph N/A   Overcast
11:55 PM 68.5 °F - 53.4 °F 58% 30.02 in 10.0 mi North 9.2 mph 18.4 mph N/A   Overcast